Home > Weather > Wesel > Past weeks

Flag for Germany Weather for the Past 2 Weeks in Wesel, North Rhine-Westphalia, Germany

Now
45 °F

Passing clouds.


Feels Like: 40 °F
Forecast: 35 / 44 °F
Wind: 8 mph from West

Location: Niederrhein

Current Time: Feb 11, 2016 at 4:54:15 PM

Latest Report: Feb 11, 2016 at 4:20 PM


Visibility: N/A

Pressure: 29.65 "Hg

Humidity: 71%

Dew point: 36 °F

Location of WeselLocation

Historic Weather in Wesel — Graph

°F

Wesel Temperature Yesterday

Maximum temperature yesterday: 45 °F (at 2:50 PM)
Minimum temperature yesterday: 37 °F (at 6:20 AM)
Average temperature yesterday: 41 °F

High & Low Weather Summary for the Past Weeks

 TemperatureHumidityPressure
High54 °F (Jan 27, 3:20 PM)100% (Feb 5, 9:50 AM)30.30 "Hg (Feb 5, 9:50 AM)
Low36 °F (Feb 4, 8:50 PM)57% (Jan 28, 3:20 PM)28.82 "Hg (Feb 9, 3:20 PM)
Average45 °F82%29.80 "Hg
* Reported Jan 27 3:20 PM — Feb 11 3:50 PM, Wesel, Weather by CustomWeather, © 2016

Note: Actual official high and low records may vary slightly from our data, if they occured in-between our weather recording intervals... More about our weather records

Advertising

Wesel Weather History for the Previous 24 Hours

 ConditionsComfort  
Time TempWeatherWind HumidityBarometerVisibility
3:50 PM
Thu, Feb 11
45 °FSunny.8 mph71%29.65 "Hg10 mi
3:20 PM45 °FSunny.12 mph71%29.65 "Hg10 mi
2:50 PM45 °FPassing clouds.13 mph71%29.65 "HgN/A
2:20 PM45 °FPassing clouds.14 mph71%29.65 "HgN/A
1:50 PM45 °FScattered clouds.12 mph71%29.65 "HgN/A
1:20 PM45 °FScattered clouds.14 mph71%29.65 "HgN/A
12:50 PM45 °FScattered clouds.15 mph71%29.68 "HgN/A
12:20 PM45 °FSunny.10 mph76%29.68 "Hg10 mi
11:50 AM43 °FPassing clouds.10 mph76%29.68 "HgN/A
11:20 AM43 °FSunny.10 mph76%29.68 "Hg10 mi
10:50 AM41 °FSunny.10 mph81%29.65 "Hg10 mi
10:20 AM39 °FPassing clouds.8 mph87%29.65 "HgN/A
9:50 AM37 °FSunny.9 mph93%29.65 "Hg10 mi
9:20 AM37 °FPassing clouds.9 mph87%29.65 "Hg4 mi
8:50 AM36 °FPassing clouds.8 mph93%29.65 "Hg4 mi
8:20 AM36 °FPassing clouds.7 mph93%29.65 "Hg4 mi
7:50 AM36 °FPassing clouds.8 mph93%29.62 "Hg4 mi
7:20 AM36 °FPassing clouds.8 mph93%29.62 "Hg4 mi
6:50 AM36 °FPassing clouds.8 mph93%29.62 "Hg4 mi
6:20 AM37 °FPassing clouds.8 mph93%29.62 "Hg4 mi
5:50 AM37 °FPassing clouds.9 mph93%29.62 "Hg4 mi
5:20 AM39 °FPassing clouds.9 mph87%29.62 "Hg4 mi
4:50 AM39 °FPassing clouds.9 mph87%29.59 "Hg5 mi
11:50 PM
Wed, Feb 10
37 °FClear.7 mph93%29.56 "Hg10 mi
11:20 PM39 °FClear.7 mph87%29.53 "Hg10 mi
10:50 PM41 °FSprinkles. Passing clouds.12 mph87%29.53 "HgN/A
9:50 PM39 °FPassing clouds.10 mph93%29.50 "HgN/A
9:20 PM39 °FPassing clouds.10 mph87%29.50 "HgN/A
8:50 PM39 °FClear.10 mph93%29.50 "Hg10 mi
8:20 PM41 °FPassing clouds.10 mph87%29.47 "HgN/A
7:50 PM39 °FClear.9 mph93%29.47 "Hg10 mi
7:20 PM41 °FPassing clouds.10 mph87%29.45 "HgN/A
6:50 PM41 °FPartly cloudy.8 mph87%29.45 "HgN/A
6:20 PM41 °FPartly sunny.9 mph93%29.42 "HgN/A
5:50 PM41 °FPartly sunny.8 mph93%29.42 "HgN/A
5:20 PM41 °FSprinkles. Partly sunny.14 mph87%29.39 "Hg6 mi
4:50 PM41 °FPartly sunny.18 mph87%29.39 "Hg6 mi
4:20 PM45 °FPartly sunny.13 mph76%29.36 "HgN/A
Weather by CustomWeather, © 2016

See weather overviewHow to use our weather pages